GALAXY 30 (G-30)

Last updated on Thu Jul 10 2025 00:02:46 GMT+0000 (Coordinated Universal Time)

1 46114U 20056C 25190.44912472 .00000052 00000+0 00000+0 0 9994 2 46114 0.0156 50.0952 0002389 54.5653 219.6569 1.00269928 17857
UTC large
Height (km)
Speed (km/s)
/
Latitude / Longitude
Inclination (degrees)
Orbital Period (minutes)
Azimuth
Elevation
Range (km)
Doppler Factor

Next 0 passes for location: London (51.5072 / 0.1276)

Sorry there are no passes over London.